When you browse on this site, cookies collect data to enhance your experience and personalize the content and advertising you see.
Visit our Privacy Policy to learn more. By continuing to use the site, you agree to this use of cookies and data.
  • In Hungary
  • List of Countries
  • For 7 days
  • Water Temperature
  • Satellite Maps
  • Weather Map
  • News
  • Weather Widgets
  • user-avatar
    Login

    Hourly Weather Biernatki

    Today, 11 December, Tuesday

    Time Temperature Precipitation Wind Pressure Humidity
    00:00 +1°C° 0.1 mm 5 mps 749 mmHg 81%
    01:00 +1°C° 0 mm 4 mps 749 mmHg 83%
    02:00 +1°C° 0.2 mm 4 mps 749 mmHg 84%
    03:00 +1°C° 0.2 mm 4 mps 749 mmHg 84%
    04:00 +1°C° 0.2 mm 4 mps 749 mmHg 85%
    05:00 +1°C° 0.5 mm 4 mps 749 mmHg 85%
    06:00 +1°C° 0.5 mm 5 mps 749 mmHg 85%
    07:00 +1°C° 0.5 mm 5 mps 749 mmHg 85%
    08:00 +1°C° 0.3 mm 5 mps 749 mmHg 86%
    09:00 +1°C° 0.3 mm 4 mps 749 mmHg 86%
    10:00 +1°C° 0.3 mm 4 mps 749 mmHg 87%
    11:00 +1°C° 0.2 mm 4 mps 750 mmHg 85%
    12:00 +2°C° 0.2 mm 5 mps 750 mmHg 84%
    13:00 +2°C° 0.2 mm 5 mps 751 mmHg 82%
    14:00 +3°C° 0.2 mm 4 mps 751 mmHg 83%
    15:00 +1°C° 0.2 mm 4 mps 752 mmHg 84%
    16:00 +1°C° 0.2 mm 4 mps 752 mmHg 85%
    17:00 +1°C° 0.2 mm 4 mps 752 mmHg 86%
    18:00 +1°C° 0.2 mm 4 mps 753 mmHg 87%
    19:00 +1°C° 0.2 mm 4 mps 753 mmHg 88%
    20:00 +1°C° 0.1 mm 4 mps 754 mmHg 89%
    21:00 +1°C° 0.1 mm 4 mps 754 mmHg 91%
    22:00 +1°C° 0.1 mm 3 mps 755 mmHg 92%
    23:00 +1°C° 0.1 mm 3 mps 755 mmHg 92%

    Tomorrow, 12 December, Wednesday

    Time Temperature Precipitation Wind Pressure Humidity
    00:00 0°C° 0.1 mm 4 mps 755 mmHg 92%
    01:00 0°C° 0.1 mm 4 mps 756 mmHg 92%
    02:00 0°C° 0 mm 3 mps 756 mmHg 92%
    03:00 0°C° 0 mm 3 mps 757 mmHg 92%
    04:00 -1°C° 0 mm 3 mps 757 mmHg 92%
    05:00 -1°C° 0 mm 3 mps 758 mmHg 91%
    06:00 -1°C° 0 mm 3 mps 758 mmHg 91%
    07:00 -2°C° 0 mm 3 mps 759 mmHg 91%
    08:00 -1°C° 0 mm 3 mps 759 mmHg 88%
    09:00 -1°C° 0 mm 3 mps 760 mmHg 86%
    10:00 0°C° 0 mm 3 mps 760 mmHg 83%
    11:00 0°C° 0 mm 3 mps 760 mmHg 81%
    12:00 +1°C° 0 mm 3 mps 761 mmHg 79%
    13:00 +2°C° 0 mm 2 mps 761 mmHg 77%
    14:00 +2°C° 0 mm 2 mps 761 mmHg 81%
    15:00 +1°C° 0 mm 2 mps 761 mmHg 84%
    16:00 +1°C° 0 mm 2 mps 761 mmHg 87%
    17:00 +1°C° 0 mm 2 mps 761 mmHg 88%
    18:00 +1°C° 0 mm 2 mps 762 mmHg 90%
    19:00 -1°C° 0 mm 2 mps 762 mmHg 91%
    20:00 -1°C° 0 mm 2 mps 762 mmHg 91%
    21:00 -1°C° 0 mm 2 mps 762 mmHg 92%
    22:00 -1°C° 0 mm 2 mps 762 mmHg 92%
    23:00 -1°C° 0 mm 2 mps 762 mmHg 93%

    Day after tomorrow, 13 December, Thursday

    Time Temperature Precipitation Wind Pressure Humidity
    00:00 -1°C° 0 mm 2 mps 762 mmHg 93%
    01:00 -1°C° 0 mm 2 mps 762 mmHg 94%
    02:00 -1°C° 0 mm 2 mps 762 mmHg 94%
    03:00 -1°C° 0 mm 2 mps 762 mmHg 94%
    04:00 -1°C° 0 mm 2 mps 762 mmHg 94%
    05:00 -1°C° 0 mm 2 mps 762 mmHg 93%
    06:00 -1°C° 0 mm 2 mps 762 mmHg 93%
    07:00 -1°C° 0 mm 3 mps 762 mmHg 93%
    08:00 -1°C° 0 mm 3 mps 762 mmHg 91%
    09:00 -1°C° 0 mm 3 mps 762 mmHg 90%
    10:00 0°C° 0 mm 3 mps 762 mmHg 88%
    11:00 0°C° 0 mm 3 mps 762 mmHg 86%
    12:00 0°C° 0 mm 3 mps 762 mmHg 84%
    13:00 0°C° 0 mm 3 mps 762 mmHg 83%
    14:00 0°C° 0 mm 3 mps 762 mmHg 84%
    15:00 +1°C° 0 mm 2 mps 762 mmHg 85%
    16:00 -1°C° 0 mm 2 mps 762 mmHg 86%
    17:00 -1°C° 0 mm 2 mps 762 mmHg 86%
    18:00 -1°C° 0 mm 2 mps 762 mmHg 86%
    19:00 -1°C° 0 mm 2 mps 762 mmHg 86%
    20:00 -1°C° 0 mm 2 mps 762 mmHg 87%
    21:00 -1°C° 0 mm 2 mps 762 mmHg 87%
    22:00 -1°C° 0 mm 2 mps 763 mmHg 87%
    23:00 -1°C° 0 mm 2 mps 763 mmHg 87%

    14 December, Friday

    Time Temperature Precipitation Wind Pressure Humidity
    00:00 -1°C° 0 mm 2 mps 763 mmHg 87%
    01:00 -1°C° 0 mm 2 mps 763 mmHg 87%
    02:00 -1°C° 0 mm 2 mps 763 mmHg 87%
    03:00 -1°C° 0 mm 2 mps 763 mmHg 86%
    04:00 -1°C° 0 mm 2 mps 762 mmHg 86%
    05:00 -1°C° 0 mm 2 mps 762 mmHg 86%
    06:00 -2°C° 0 mm 2 mps 763 mmHg 86%
    07:00 -2°C° 0 mm 2 mps 763 mmHg 86%
    08:00 -1°C° 0 mm 2 mps 763 mmHg 84%
    09:00 -1°C° 0 mm 2 mps 763 mmHg 82%
    10:00 -1°C° 0 mm 2 mps 763 mmHg 81%
    11:00 -1°C° 0 mm 2 mps 763 mmHg 78%
    12:00 -1°C° 0 mm 2 mps 763 mmHg 76%
    13:00 +1°C° 0 mm 2 mps 763 mmHg 73%
    14:00 -1°C° 0 mm 2 mps 763 mmHg 75%
    15:00 -1°C° 0 mm 2 mps 763 mmHg 77%
    16:00 -1°C° 0 mm 2 mps 763 mmHg 80%
    17:00 -1°C° 0 mm 2 mps 764 mmHg 80%
    18:00 -1°C° 0 mm 2 mps 764 mmHg 80%
    19:00 -1°C° 0 mm 2 mps 764 mmHg 80%
    20:00 -1°C° 0 mm 2 mps 764 mmHg 80%
    21:00 -1°C° 0 mm 2 mps 765 mmHg 81%
    22:00 -1°C° 0 mm 2 mps 765 mmHg 81%
    23:00 -1°C° 0 mm 2 mps 765 mmHg 82%

    15 December, Saturday

    Time Temperature Precipitation Wind Pressure Humidity
    00:00 -2°C° 0 mm 2 mps 765 mmHg 83%
    01:00 -2°C° 0 mm 2 mps 765 mmHg 84%
    02:00 -2°C° 0 mm 2 mps 765 mmHg 85%
    03:00 -2°C° 0 mm 2 mps 765 mmHg 86%
    04:00 -2°C° 0 mm 2 mps 765 mmHg 88%
    05:00 -2°C° 0 mm 2 mps 765 mmHg 88%
    06:00 -2°C° 0 mm 2 mps 765 mmHg 89%
    07:00 -2°C° 0 mm 2 mps 765 mmHg 90%
    08:00 -2°C° 0 mm 2 mps 766 mmHg 89%
    09:00 -1°C° 0 mm 2 mps 766 mmHg 88%
    10:00 -1°C° 0 mm 2 mps 766 mmHg 88%
    11:00 -1°C° 0 mm 2 mps 766 mmHg 86%
    12:00 +1°C° 0 mm 2 mps 766 mmHg 85%
    13:00 +1°C° 0 mm 2 mps 766 mmHg 84%
    14:00 +1°C° 0 mm 2 mps 766 mmHg 85%
    15:00 -1°C° 0 mm 2 mps 766 mmHg 87%
    16:00 -1°C° 0 mm 2 mps 766 mmHg 88%
    17:00 -1°C° 0 mm 2 mps 766 mmHg 88%
    18:00 -1°C° 0 mm 2 mps 766 mmHg 87%
    19:00 -2°C° 0 mm 2 mps 767 mmHg 87%
    20:00 -2°C° 0 mm 2 mps 766 mmHg 87%
    21:00 -2°C° 0 mm 2 mps 766 mmHg 87%
    22:00 -3°C° 0 mm 2 mps 766 mmHg 86%
    23:00 -3°C° 0 mm 2 mps 766 mmHg 87%

    16 December, Sunday

    Time Temperature Precipitation Wind Pressure Humidity
    00:00 -3°C° 0 mm 2 mps 766 mmHg 87%
    01:00 -3°C° 0 mm 2 mps 766 mmHg 88%
    02:00 -3°C° 0 mm 2 mps 766 mmHg 88%
    03:00 -4°C° 0 mm 3 mps 765 mmHg 89%
    04:00 -4°C° 0 mm 3 mps 765 mmHg 89%
    05:00 -4°C° 0 mm 3 mps 765 mmHg 89%
    06:00 -4°C° 0 mm 3 mps 765 mmHg 88%
    07:00 -4°C° 0 mm 3 mps 764 mmHg 88%
    08:00 -3°C° 0 mm 4 mps 764 mmHg 84%
    09:00 -3°C° 0 mm 4 mps 764 mmHg 81%
    10:00 -4°C° 0 mm 5 mps 764 mmHg 78%
    11:00 -2°C° 0 mm 5 mps 763 mmHg 76%
    12:00 -2°C° 0 mm 5 mps 763 mmHg 74%
    13:00 -2°C° 0 mm 6 mps 762 mmHg 71%
    14:00 -3°C° 0 mm 6 mps 762 mmHg 73%
    15:00 -3°C° 0 mm 6 mps 761 mmHg 76%
    16:00 -3°C° 0 mm 6 mps 761 mmHg 78%
    17:00 -3°C° 0 mm 6 mps 760 mmHg 77%
    18:00 -3°C° 0 mm 6 mps 760 mmHg 76%
    19:00 -3°C° 0 mm 7 mps 759 mmHg 76%
    20:00 -3°C° 0.1 mm 7 mps 759 mmHg 77%
    21:00 -3°C° 0.1 mm 7 mps 758 mmHg 78%
    22:00 -3°C° 0.1 mm 7 mps 758 mmHg 79%
    23:00 -3°C° 0.2 mm 6 mps 757 mmHg 80%
    Show more